Location: Bennemühlen
(52.5740°N, 9.7135°E)
Time: 02:44:10
(UTC+00:00)

A-11 Canister half - Pass Details

Date: 24 February 2026
Orbit: 1513 x 1687 km, 47.2° (Epoch: 13 March)

Event Time Altitude Azimuth Distance (km) Brightness Sun altitude
Rises 20:12:35 0° 247° (WSW) 4,938 12.2 -30.6°
Reaches altitude 10° 20:15:48 10° 244° (WSW) 3,949 11.5 -31.1°
Maximum altitude 20:25:44 62° 168° (SSE) 1,846 9.1 -32.4°
Enters shadow 20:26:08 61° 158° (SSE) 1,850 9.0 -32.4°
Drops below altitude 10° 20:35:28 10° 91° (E) 3,871 - -33.6°
Sets 20:38:35 0° 88° (E) 4,836 - -34.0°
